Regional Weather Roundup
Issued by NWS

Home | Current Version | Previous Version | Graphics & Text | Print | Product List | Glossary On
Versions: 1 2 3 4 5 6 7 8 9 10 11 12 13 14 15 16 17 18 19 20 21 22 23 24 25 26
000
ASUS45 KTFX 240110
RWRMT
MONTANA REGIONAL WEATHER ROUNDUP
NATIONAL WEATHER SERVICE GREAT FALLS MT
700 PM MDT MON APR 23 2018

NOTE: "FAIR" INDICATES FEW OR NO CLOUDS BELOW 12000 FEET WITH NO
SIGNIFICANT WEATHER AND/OR OBSTRUCTIONS TO VISIBILITY.

MTZ001>007-043-240200-
WEST OF THE DIVIDE

CITY           SKY/WX    TMP DP  RH WIND       PRES   REMARKS
KALISPELL      FAIR      58  18  21 NE8       30.37R
MISSOULA       FAIR      53  25  33 SE16      30.38S
BUTTE          CLOUDY    38  29  70 S9        30.40R WCI  31
MULLAN PASS    FAIR      43  16  33 CALM      30.36S
ANACONDA         N/A     41  25  52 NW7       30.40S
DEER LODGE       N/A     43  25  49 N7        30.43R
HAMILTON         N/A     48  27  43 MISG      30.38R
PLAINS           N/A     61  26  26 E3        30.34
RONAN            N/A     55  21  26 NW6       30.39R
$$

MTZ008-052>055-240200-
SOUTHWEST MONTANA

CITY           SKY/WX    TMP DP  RH WIND       PRES   REMARKS
BOZEMAN        CLOUDY    40  32  73 SW5       30.42R
DILLON         CLOUDY    40  28  62 NE20      30.36R
ENNIS          PTSUNNY   37  32  81 N28       30.39R WCI  25
W YELLOWSTONE  CLOUDY    34  25  69 N9G15     30.30S WCI  26
THREE FORKS      N/A     44  32  63 N8        30.37R
TWIN BRIDGES     N/A     41  25  53 N18       30.30
$$

MTZ009-010-012-014-046-048-049-054-240200-
EAST SLOPES AND CENTRAL MONTANA

CITY           SKY/WX    TMP DP  RH WIND       PRES   REMARKS
CUT BANK       FAIR      51  16  24 S7        30.40S
GREAT FALLS    FAIR      49  21  33 SE7       30.41F
MALMSTROM AFB  MOSUNNY   49  18  28 CALM      30.42S
HELENA         PTSUNNY   47  28  47 SE9       30.41S
CHOTEAU          N/A     50  18  27 E9G15     30.42F
WHITE SULPHUR    N/A     36  32  87 NW6       30.40S WCI  31
$$

MTZ011-013-016-021-045-047-050-051-240200-
NORTH CENTRAL MONTANA

CITY           SKY/WX    TMP DP  RH WIND       PRES   REMARKS
HAVRE          PTSUNNY   55  22  27 NE10      30.40R
LEWISTOWN      FAIR      43  31  62 NW5       30.41S
N BAR RANCH    FAIR      37  32  81 NW5       30.42S
$$

MTZ017>020-022>027-061-062-240200-
NORTHEAST MONTANA

CITY           SKY/WX    TMP DP  RH WIND       PRES   REMARKS
GLASGOW        FAIR      53  21  28 N7        30.35S
GLENDIVE       CLOUDY    40  37  89 NE5       30.33S
JORDAN           N/A     46  31  55 NW8       30.37S
MALTA          SUNNY     54  25  32 NW8G14    30.36S
SIDNEY         FAIR      47  33  58 N10       30.32S
WOLF POINT     FAIR      53  21  28 N9        30.34F
PLENTYWOOD       N/A     48  21  34 N8        30.34R
POPLAR           N/A     52  21  30 NE8       30.34S
SCOBEY           N/A     50  17  27 N12       30.31
$$

MTZ028>42-056>058-240200-
SOUTHCENTRAL AND SOUTHEAST MONTANA

CITY           SKY/WX    TMP DP  RH WIND       PRES   REMARKS
BAKER          LGT SNOW  33  33 100 N14       30.29R FOG     WCI  23
BILLINGS       CLOUDY    36  34  92 NW7       30.44R WCI  30
LIVINGSTON     CLOUDY    37  32  82 E13       30.42R WCI  29
MILES CITY     LGT SNOW  35  34  96 N12       30.37R FOG     WCI  27
BIG TIMBER     CLOUDY    34  32  93 CALM      30.45R FOG
EKALAKA          N/A     32  29  89 NW14      30.22  VSB 0   WCI  22
FORSYTH          N/A     34  34 100 W7        30.41R WCI  28
LAUREL           N/A     37  36  93 VRB5      30.45S
$$

REGIONAL REPORTS...DAKOTAS

CITY           SKY/WX    TMP DP  RH WIND       PRES   REMARKS
WILLISTON      CLOUDY    50  18  28 N12       30.32S
MINOT          CLOUDY    52  31  44 NW12      30.26R
DICKINSON      CLOUDY    42  35  76 N24G32    30.23R
BEACH            N/A    N/A N/A N/A MISG        N/A
CROSBY         FAIR      48  23  37 N12       30.32R
TIOGA          MOCLDY    46  21  36 N10       30.32S
WATFORD CITY   FAIR      45  36  70 N8        30.30S
BISMARCK       CLOUDY    56  34  43 N16G25    30.18R
GRAND FORKS    MOCLDY    58  36  43 NE3       30.17R
FARGO          FAIR      59  40  49 N10       30.14S
BUFFALO SD       N/A     44  35  70 N16G32    30.14R
RAPID CITY     CLOUDY    50  44  80 N18       30.05F
$$

REGIONAL REPORTS...WYOMING/IDAHO/WASHINGTON

CITY           SKY/WX    TMP DP  RH WIND       PRES   REMARKS
GILLETTE       LGT SNOW  33  32  96 NW17      30.30R VSB 3/4 WCI  22
SHERIDAN       CLOUDY    36  33  89 NW25G32   30.37R WCI  24
BUFFALO WY     CLOUDY    35  28  75 NW23G32   30.33R WCI  23
CODY           CLOUDY    36  28  73 N14       30.39R WCI  27
YELLOWSTONE LA   N/A     30  23  75 MISG      30.33R
IDAHO FALLS    CLOUDY    46  38  73 E7        30.28R
SALMON         CLOUDY    48  30  49 SE13      30.33R
BOISE          FAIR      63  28  26 NW14      30.19S
SPOKANE        FAIR      63  22  20 NE8       30.32S
$$

REGIONAL REPORTS...ALBERTA

CITY           SKY/WX    TMP DP  RH WIND       PRES   REMARKS
CALGARY        SUNNY     54  23  30 S15G22    30.32S
EDMONTON       SUNNY     57  19  23 W7        30.28S
FORT MCMURRAY  SUNNY     57  19  23 W3        30.18F
HIGH LEVEL     MOSUNNY   55  21  26 SE10      30.05F
LETHBRIDGE     SUNNY     55  19  24 S6G18     30.37S
LLOYDMINSTER   SUNNY     52  25  35 NW12      30.30F
MEDICINE HAT   MOSUNNY   57  21  24 W8        30.37S
MILK RIVER       N/A     54  21  28 S5          N/A
ONEFOUR          N/A     54  19  26 NW5         N/A
PEACE RIVER    PTSUNNY   50  28  43 SW6       30.18F
PINCHER CREEK  SUNNY     52  23  32 SE9       30.35F
WATERTON GATE    N/A     52  16  24 SW7         N/A
$$

REGIONAL REPORTS...SASKATCHEWAN

CITY           SKY/WX    TMP DP  RH WIND       PRES   REMARKS
CORONACH         N/A     50  18  27 N12G17      N/A
CYPRESS HILLS    N/A     46  14  27 N6          N/A
ESTEVAN        MOCLDY    48  21  34 N15       30.31R
MOOSE JAW        N/A     52  18  25 NW14        N/A
PRINCE ALBERT  MOSUNNY   52  23  32 NW5       30.31S
REGINA         PTCLDY    50  21  32 NW15G22   30.33S
ROCKGLEN         N/A     48  18  29 N12         N/A
SASKATOON      MOSUNNY   54  23  30 NW10G17   30.33F
SWIFT CURRENT  SUNNY     50  19  29 N16       30.35S
VAL MARIE        N/A     52  18  25 N9          N/A
$$




USA.gov is the U.S. government's official web portal to all federal, state and local government web resources and services.